Winfield, KS

5:25 PM CDT on March 22, 2017 (GMT -0500)
Strother

Weather History for KWLD - April, 2014

Change the Weather History Date:

Thursday, April 10, 2014

  Actual Average Record
Temperature  
Mean Temperature 67 °F -  
Max Temperature 79 °F 65 °F 87 °F (2016)
Min Temperature 55 °F 42 °F 32 °F (2013)
Cooling Degree Days 2    
Growing Degree Days 17 (Base 50)    
Moisture  
Dew Point 41 °F    
Average Humidity 42    
Maximum Humidity 64    
Minimum Humidity 25    
Precipitation  
Precipitation 0.00 in - - ()
Sea Level Pressure  
Sea Level Pressure 29.81 in    
Wind  
Wind Speed 13 mph (East)    
Max Wind Speed 23 mph    
Max Gust Speed 29 mph    
Visibility 10 miles    
Events      
Averages and records for this station are not official NWS values.
T = Trace of Precipitation, MM = Missing Value Source: NWS Daily Summary

Daily Weather History Graph

Daily Weather History Graph

Search for Another Location

Airport or City:

Trip Planner

Search our weather history database for the weather conditions in past years. The results will help you decide how hot, cold, wet, or windy it might be!

Date:

Astronomy

Apr. 10, 2014 Rise Set
Actual Time 7:00 AM CDT 7:58 PM CDT
Civil Twilight 6:34 AM CDT 8:25 PM CDT
Nautical Twilight 6:02 AM CDT 8:57 PM CDT
Astronomical Twilight 5:29 AM CDT 9:29 PM CDT
Moon 3:49 PM CDT (4/10) 4:18 AM CDT (4/10)
Length of Visible Light 13h 51m
Length of Day
12h 58m
Waxing Gibbous, 80% of the Moon is Illuminated
Apr 10
Waxing Gibbous
Apr 15
Full
Apr 22
Last Quarter
Apr 29
New
May 6
First Quarter

Hourly Weather History & Observations

Time (CDT) Temp. Dew Point Humidity Pressure Visibility Wind Dir Wind Speed Gust Speed Precip Events Conditions
12:54 AM 64.9 °F 42.1 °F 43% 29.79 in 10.0 mi South 18.4 mph 26.5 mph N/A   Clear
1:54 AM 63.0 °F 42.1 °F 46% 29.78 in 10.0 mi South 15.0 mph 23.0 mph N/A   Clear
2:54 AM 60.1 °F 43.0 °F 53% 29.75 in 10.0 mi South 15.0 mph - N/A   Clear
3:54 AM 59.0 °F 44.1 °F 58% 29.74 in 10.0 mi South 11.5 mph - N/A   Clear
4:54 AM 55.9 °F 44.1 °F 64% 29.72 in 10.0 mi South 12.7 mph - N/A   Clear
5:54 AM 55.9 °F 43.0 °F 62% 29.71 in 10.0 mi SSE 8.1 mph - N/A   Clear
6:54 AM 55.0 °F 42.1 °F 62% 29.71 in 10.0 mi SSE 10.4 mph - N/A   Clear
7:54 AM 57.9 °F 43.0 °F 58% 29.72 in 10.0 mi South 9.2 mph - N/A   Clear
8:54 AM 64.0 °F 45.0 °F 50% 29.76 in 10.0 mi SW 8.1 mph - N/A   Clear
9:54 AM 69.1 °F 44.1 °F 40% 29.75 in 10.0 mi SSW 13.8 mph - N/A   Clear
10:54 AM 72.0 °F 42.1 °F 34% 29.78 in 10.0 mi SW 9.2 mph - N/A   Clear
11:54 AM 73.9 °F 42.1 °F 32% 29.79 in 10.0 mi NNE 10.4 mph - N/A   Clear
12:54 PM 77.0 °F 43.0 °F 30% 29.81 in 10.0 mi NNE 12.7 mph 24.2 mph N/A   Clear
1:54 PM 79.0 °F 44.1 °F 29% 29.82 in 10.0 mi NNE 13.8 mph 25.3 mph N/A   Clear
2:54 PM 77.0 °F 41.0 °F 28% 29.84 in 10.0 mi North 23.0 mph 28.8 mph N/A   Clear
3:54 PM 77.0 °F 39.0 °F 25% 29.84 in 10.0 mi North 19.6 mph - N/A   Clear
4:54 PM 75.9 °F 39.0 °F 26% 29.84 in 10.0 mi NNE 13.8 mph 23.0 mph N/A   Clear
5:54 PM 75.9 °F 37.9 °F 25% 29.85 in 10.0 mi NE 13.8 mph 23.0 mph N/A   Clear
6:54 PM 73.0 °F 39.0 °F 29% 29.87 in 10.0 mi NNE 13.8 mph - N/A   Clear
7:54 PM 66.9 °F 37.9 °F 34% 29.89 in 9.0 mi North 11.5 mph - N/A   Clear
8:54 PM 63.0 °F 36.0 °F 37% 29.91 in 10.0 mi NNE 10.4 mph - N/A   Clear
9:54 PM 60.1 °F 37.0 °F 42% 29.95 in 10.0 mi NE 6.9 mph - N/A   Clear
10:54 PM 57.0 °F 37.0 °F 47% 29.96 in 9.0 mi NE 6.9 mph - N/A   Clear
11:54 PM 55.9 °F 37.0 °F 49% 29.96 in 9.0 mi ENE 6.9 mph - N/A   Clear